Starlink 11463

operational
NORAD ID: 62066 Int'l Des: 2024-217 Owner: SPXS Country: US Constellation: starlink
LEOCIRCULAR

Über Starlink 11463

Beschreibung wird geladen...

Live-Position

3D-Globus wird geladen...

Nächste Überflüge

Höhenverlauf

Altitude vs Time

uPlot chart will show altitude changes over time

Zweizeiliger Elementsatz

1 62066U 24217K 25304.82045135 .00261964 00000-0 20937-2 0 9999
2 62066 53.1561 346.4997 0001313 108.1883 251.9278 15.69777417 54931
Epoch: 31. Okt. 2025 • Age: 21 hours

Aktueller Status

Höhe 367.9 km
Geschwindigkeit 7.69 km/s
Subsatellitenpunkt -29.43°S, 22.26°E
Startdatum 24. Nov. 2024
Alter 0.9 years
Typ internet

Technische Details

Klassifizierung Payload
Masse 960.00 kg
Trockenmasse 910.00 kg
Gesamtmasse 960.00 kg
Länge 0.30 m
Durchmesser 4.10 m
Spannweite 29.00 m
Form Box + pan
Hersteller SPXS
Bus-Typ Starlink V2MD
Phasenstatus In Orbit
Besitzer/Staat SPXS/US

Große Konstellationen

Loading constellations...